DW1024 Weather Reports


time (UTC)temp
F
wind
direction
speed
knots
gust
knots
rain 1hr
in
rain 24hr
in
rain mn
in
humidity
%
barometer
mb
20260901103455 73 0 0.9 5.2 0.00 0.00 0.00 55 1023.3
20260901101955 73 245 1.7 7.0 0.00 0.00 0.00 53 1023.4
20260901100456 73 263 1.7 4.3 0.00 0.00 0.00 56 1023.4
20260901093454 72 230 1.7 7.0 0.00 0.00 0.00 55 1023.4
20260901091953 73 209 1.7 6.1 0.00 0.00 0.00 52 1023.4
20260901090453 73 54 0.9 6.1 0.00 0.00 0.00 56 1023.5
20260901084954 71 96 0.9 3.5 0.00 0.00 0.00 59 1023.6
20260901083455 72 227 0.9 6.1 0.00 0.00 0.00 57 1023.7
20260901080453 71 26 0.9 3.5 0.00 0.00 0.00 60 1023.4
20260901074953 70 271 0.9 6.1 0.00 0.00 0.00 64 1023.5
20260901073455 69 167 1.7 3.5 0.00 0.00 0.00 66 1023.5
20260901071953 67 230 0.9 3.5 0.00 0.00 0.00 68 1023.5
20260901064953 64 298 0.9 3.5 0.00 0.00 0.00 75 1023.5
20260901063454 62 198 0.9 3.5 0.00 0.00 0.00 78 1023.4
20260901054953 58 234 0.0 1.7 0.00 0.00 0.00 84 1023.5
20260901051951 56 234 0.0 0.9 0.00 0.00 0.00 86 1023.3
20260901050450 55 234 0.0 0.9 0.00 0.00 0.00 88 1023.1
20260901044950 54 234 0.0 0.0 0.00 0.00 0.00 88 1023.0
20260901043447 54 234 0.0 0.0 0.00 0.00 0.00 88 1023.0
20260901041948 55 234 0.0 0.0 0.00 0.00 0.00 86 1023.0
20260901040447 55 234 0.0 0.0 0.00 0.00 0.00 84 1023.0
20260901033447 58 234 0.0 1.7 0.00 0.00 0.00 79 1022.9
20260901030445 59 219 0.9 2.6 0.00 0.00 0.00 77 1023.0
20260901024946 59 225 0.9 3.5 0.00 0.00 0.00 78 1023.1
20260901023443 60 180 0.0 0.9 0.00 0.00 0.00 78 1023.2
20260901021942 60 180 0.0 0.9 0.00 0.00 0.00 77 1023.1
20260901014945 60 215 0.0 1.7 0.00 0.00 0.00 80 1022.8
20260901013444 60 215 0.0 0.9 0.00 0.00 0.00 80 1022.8
20260901011947 60 215 0.0 1.7 0.00 0.00 0.00 79 1022.8
20260901010445 60 227 0.0 1.7 0.00 0.00 0.00 79 1022.8
20260901004939 60 227 0.0 0.9 0.00 0.00 0.00 79 1022.8
20260901003437 59 227 0.0 0.0 0.00 0.00 0.00 82 1022.7
20260901001936 60 227 0.0 1.7 0.00 0.00 0.00 81 1022.9
20260901000436 59 272 0.0 0.9 0.00 0.00 0.00 80 1022.9
20260831234938 59 272 0.0 2.6 0.00 0.00 0.00 77 1022.8
20260831233436 58 272 0.0 0.9 0.00 0.00 0.00 78 1022.8
20260831231937 59 272 0.0 0.0 0.00 0.00 0.00 77 1022.9
20260831230436 60 272 0.0 2.6 0.00 0.00 0.00 76 1022.9
20260831224938 60 272 0.0 1.7 0.00 0.00 0.00 75 1022.9
20260831223436 60 272 0.0 1.7 0.00 0.00 0.00 75 1022.9
20260831220436 61 272 0.0 2.6 0.00 0.00 0.00 74 1022.8
20260831213433 64 211 1.7 7.0 0.00 0.00 0.00 71 1022.5
20260831211932 62 248 0.0 0.0 0.00 0.00 0.00 74 1022.3
20260831210430 63 248 0.0 0.0 0.00 0.00 0.00 73 1022.1
20260831204930 62 248 0.0 0.0 0.00 0.00 0.00 75 1022.0
20260831203432 63 248 0.0 0.0 0.00 0.00 0.00 76 1021.7
20260831201928 64 248 0.0 0.0 0.00 0.00 0.00 73 1021.4
20260831200428 65 248 0.9 2.6 0.00 0.00 0.00 71 1021.2
20260831194928 65 249 0.9 2.6 0.00 0.00 0.00 71 1021.1
20260831193424 65 257 0.9 4.3 0.00 0.00 0.00 70 1020.9
20260831190427 66 231 0.0 1.7 0.00 0.00 0.00 68 1020.5
20260831184921 66 227 0.0 1.7 0.00 0.00 0.00 66 1020.4
20260831181922 68 219 0.0 1.7 0.00 0.00 0.00 64 1019.6
20260831180420 69 219 0.9 3.5 0.00 0.00 0.00 61 1019.3
20260831174922 70 246 0.9 3.5 0.00 0.00 0.00 59 1019.2
20260831173422 71 229 0.9 3.5 0.00 0.00 0.00 58 1019.1
20260831171916 72 249 1.7 7.0 0.00 0.00 0.00 55 1019.1
20260831170418 73 273 2.6 7.0 0.00 0.00 0.00 55 1018.9
20260831164918 73 162 2.6 10.4 0.00 0.00 0.00 54 1018.6
20260831163416 74 264 1.7 7.0 0.00 0.00 0.00 51 1018.7
20260831160413 75 297 2.6 7.8 0.00 0.00 0.00 49 1018.4
20260831154912 75 238 1.7 7.8 0.00 0.00 0.00 50 1018.4
20260831150410 75 277 3.5 9.6 0.00 0.00 0.00 48 1018.7
20260831144914 75 323 2.6 8.7 0.00 0.00 0.00 47 1018.9
20260831143410 76 294 4.3 12.2 0.00 0.00 0.00 46 1018.9
20260831141911 78 324 4.3 13.0 0.00 0.00 0.00 42 1018.9
20260831140411 78 257 4.3 13.0 0.00 0.00 0.00 44 1019.0
20260831134910 77 194 5.2 13.9 0.00 0.00 0.00 44 1018.7
20260831133711 78 283 6.1 16.5 0.00 0.00 0.00 44 1018.9
20260831133039 77 276 5.2 13.0 0.00 0.00 0.00 48 1018.9
20260831130408 76 267 6.1 13.9 0.00 0.00 0.00 54 1019.1
20260831124911 78 271 3.5 13.9 0.00 0.00 0.00 50 1019.1
20260831123404 76 283 5.2 14.8 0.00 0.00 0.00 54 1019.1
20260831114906 77 259 4.3 10.4 0.00 0.00 0.00 55 1019.1
20260831113406 76 281 5.2 13.9 0.00 0.00 0.00 55 1019.1
20260831111907 78 276 4.3 11.3 0.00 0.00 0.00 56 1019.1
20260831110407 76 236 4.3 12.2 0.00 0.00 0.00 56 1019.2
20260831104907 78 209 2.6 11.3 0.00 0.00 0.00 56 1019.1